IW5EFR Vecchia di Pontedera IT current weather conditions

sailwx.info

Wind from 073 at 3 knots gusting 2

Air temperature 5.6° C
Dewpoint 2.2° C

Last reported at 2018-Feb-21 23:04 UTC.
Time now 2018-Feb-21 23:24 UTC

Location: N 43°37' E 010°38'.
View on Google Maps.

See reports from other nearby stations

  
Tides and Currents Weather Stations Pressure Air Temp Water Temp Dewpoint Dewpoint Depression Visibility Wind Speed Wind Dir Waves Ship Positions
date/time (UTC)wind fromknots sea level pressurealtimeterstation pressurevisibilityair tempwater tempwave heightnotes
2018-Feb-21 23:09 088 5.6
2018-Feb-21 23:04 073 3 gusting 2 5.6
2018-Feb-21 22:59 019 0 gusting 5 5.6
2018-Feb-21 22:54 018 5.6
2018-Feb-21 22:49 016 5.6
2018-Feb-21 22:44 094 5.6
2018-Feb-21 22:39 098 1 gusting 6 6.1
2018-Feb-21 22:34 078 6.1
2018-Feb-21 22:29 027 0 gusting 5 6.1
2018-Feb-21 22:24 011 6.1
2018-Feb-21 22:19 005 2 gusting 6 6.1
2018-Feb-21 22:14 102 6.1
2018-Feb-21 22:09 104 0 gusting 3 6.1
2018-Feb-21 22:04 105 6.1
2018-Feb-21 21:59 105 2 gusting 2 6.1
2018-Feb-21 21:54 105 1 gusting 2 6.1
2018-Feb-21 21:49 105 6.7
2018-Feb-21 21:44 105 6.7
2018-Feb-21 21:39 105 6.7
2018-Feb-21 21:34 105 6.7
2018-Feb-21 21:29 105 6.7
2018-Feb-21 21:24 105 6.7
2018-Feb-21 21:19 105 2 gusting 7 6.7
2018-Feb-21 21:14 098 2 gusting 7 6.7
2018-Feb-21 21:09 092 2 gusting 9 6.7
2018-Feb-21 21:04 094 2 gusting 9 6.7
2018-Feb-21 20:59 101 4 gusting 9 6.7
2018-Feb-21 20:54 099 4 gusting 9 6.7
2018-Feb-21 20:49 096 6 gusting 9 6.7
2018-Feb-21 20:44 103 2 gusting 9 6.7
2018-Feb-21 20:39 105 6 gusting 13 7.2
2018-Feb-21 20:34 109 7 gusting 11 7.2
2018-Feb-21 20:29 098 1 gusting 11 7.2
2018-Feb-21 20:24 098 4 gusting 11 7.2
2018-Feb-21 20:19 110 4 gusting 7 7.2
2018-Feb-21 20:14 078 0 gusting 7 7.2
2018-Feb-21 20:09 083 2 gusting 8 7.2
2018-Feb-21 20:04 109 6 gusting 8 7.2
2018-Feb-21 19:59 051 1 gusting 5 7.2
2018-Feb-21 19:54 109 1 gusting 5 6.7
2018-Feb-21 19:49 012 0 gusting 6 6.7
2018-Feb-21 19:44 010 0 gusting 6 6.7
2018-Feb-21 19:24 074 6.7
2018-Feb-21 19:09 015 2 gusting 9 6.7
2018-Feb-21 19:04 012 6.7
2018-Feb-21 18:54 016 1 gusting 5 6.7
2018-Feb-21 18:49 022 2 gusting 2 6.7
2018-Feb-21 18:39 044 1 gusting 6 6.7
2018-Feb-21 18:24 015 3 gusting 6 6.7
2018-Feb-21 18:14 013 3 gusting 7 7.2
2018-Feb-21 18:09 051 2 gusting 8 7.2
2018-Feb-21 17:59 009 4 gusting 15 7.2
2018-Feb-21 17:54 108 0 gusting 15 7.2
2018-Feb-21 17:49 027 6 gusting 9 7.2
2018-Feb-21 17:44 351 2 gusting 9 7.2
2018-Feb-21 17:39 022 1 gusting 8 7.2
2018-Feb-21 17:34 034 7.2
2018-Feb-21 17:29 098 0 gusting 6 7.2
2018-Feb-21 17:24 038 7.2
2018-Feb-21 17:19 023 0 gusting 12 7.2
2018-Feb-21 17:14 103 0 gusting 12 7.2
2018-Feb-21 17:09 036 0 gusting 11 7.2
2018-Feb-21 17:04 090 5 gusting 11 7.2
2018-Feb-21 16:59 103 3 gusting 11 7.2
2018-Feb-21 16:54 096 1 gusting 11 7.2
2018-Feb-21 16:49 092 6 gusting 13 7.2
2018-Feb-21 16:44 106 0 gusting 13 7.2
2018-Feb-21 16:39 025 2 gusting 13 7.2
2018-Feb-21 16:34 031 6 gusting 13 7.8
2018-Feb-21 16:29 015 0 gusting 13 7.8
2018-Feb-21 16:24 092 2 gusting 13 8.3
2018-Feb-21 16:19 097 1 gusting 13 8.3
2018-Feb-21 16:14 083 2 gusting 13 8.3
2018-Feb-21 16:09 024 1 gusting 17 8.3
2018-Feb-21 16:04 103 6 gusting 17 8.3
2018-Feb-21 15:59 113 2 gusting 12 8.3
2018-Feb-21 15:42 098 2 gusting 12 7.8
2018-Feb-21 15:37 098 5 gusting 12 7.8
2018-Feb-21 15:32 109 0 gusting 13 7.8
2018-Feb-21 15:27 049 2 gusting 13 7.8
2018-Feb-21 15:22 098 6 gusting 14 7.8
2018-Feb-21 15:17 080 2 gusting 14 7.8
2018-Feb-21 14:42 114 9 gusting 14 7.8
2018-Feb-21 14:32 098 7.8
2018-Feb-21 14:22 097 1 gusting 16 8.3
2018-Feb-21 14:17 103 0 gusting 16 8.3
2018-Feb-21 14:02 103 6 gusting 14 8.3
2018-Feb-21 13:57 033 3 gusting 14 8.9
2018-Feb-21 13:47 094 8 gusting 15 8.9
2018-Feb-21 13:42 032 9.4
2018-Feb-21 13:37 014 5 gusting 11 9.4
2018-Feb-21 13:27 011 5 gusting 13 8.9
2018-Feb-21 13:17 022 8 gusting 11 9.4
2018-Feb-21 13:07 005 1 gusting 11 8.9
2018-Feb-21 13:02 056 2 gusting 12 8.9
2018-Feb-21 12:57 126 5 gusting 12 8.9
2018-Feb-21 12:52 044 2 gusting 13 8.3
2018-Feb-21 12:37 040 3 gusting 14 8.3
2018-Feb-21 12:32 040 4 gusting 14 7.8
2018-Feb-21 12:22 026 6 gusting 12 8.3
2018-Feb-21 12:17 355 10 gusting 12 8.3
2018-Feb-21 12:12 005 9 gusting 12 7.8
2018-Feb-21 12:02 013 3 gusting 9 7.8
2018-Feb-21 11:52 086 1 gusting 15 7.8
2018-Feb-21 11:47 092 4 gusting 15 8.3
2018-Feb-21 11:37 058 4 gusting 13 8.3
2018-Feb-21 11:22 005 8 gusting 21 8.3
2018-Feb-21 11:07 100 7 gusting 19 8.3
2018-Feb-21 10:52 042 2 gusting 14 8.3
2018-Feb-21 10:47 090 5 gusting 14 8.3
2018-Feb-21 10:42 094 1 gusting 18 7.8
2018-Feb-21 10:37 041 4 gusting 18 7.8
2018-Feb-21 10:32 028 6 gusting 13 7.8
2018-Feb-21 10:27 095 5 gusting 13 7.8
2018-Feb-21 10:22 071 4 gusting 13 7.8
2018-Feb-21 10:17 031 4 gusting 13 7.8
2018-Feb-21 10:12 131 3 gusting 26 7.8
2018-Feb-21 10:07 023 4 gusting 26 7.8
2018-Feb-21 10:02 083 2 gusting 22 7.8
2018-Feb-21 09:57 041 4 gusting 22 7.2
2018-Feb-21 09:52 094 7 gusting 18 7.2
2018-Feb-21 09:47 061 6 gusting 18 7.8
2018-Feb-21 09:42 104 6 gusting 27 7.8
2018-Feb-21 09:37 073 12 gusting 27 7.8
2018-Feb-21 09:32 105 6 gusting 23 7.8
2018-Feb-21 09:27 114 3 gusting 23 7.8
2018-Feb-21 09:22 051 4 gusting 19 7.8
2018-Feb-21 09:17 081 12 gusting 19 7.8
2018-Feb-21 09:12 074 4 gusting 23 7.8
2018-Feb-21 09:07 093 16 gusting 23 7.8
2018-Feb-21 09:02 101 2 gusting 20 7.8
2018-Feb-21 08:57 123 13 gusting 20 7.2
2018-Feb-21 08:52 110 4 gusting 15 7.8
2018-Feb-21 08:47 127 1 gusting 15 7.8
2018-Feb-21 08:42 098 6 gusting 22 7.8
2018-Feb-21 08:37 071 6 gusting 22 7.8
2018-Feb-21 08:32 107 3 gusting 19 7.8
2018-Feb-21 08:27 101 19 gusting 19 7.8
2018-Feb-21 08:22 119 6 gusting 21 7.8
2018-Feb-21 08:17 096 6 gusting 21 7.8
2018-Feb-21 08:12 022 5 gusting 21 7.2
2018-Feb-21 08:07 069 19 gusting 21 7.2
2018-Feb-21 08:02 046 6 gusting 20 7.2
2018-Feb-21 07:57 060 6 gusting 20 7.2
2018-Feb-21 07:52 092 2 gusting 13 7.2
2018-Feb-21 07:47 092 6 gusting 13 7.2
2018-Feb-21 07:42 119 2 gusting 12 7.2
2018-Feb-21 07:37 061 3 gusting 12 7.2
2018-Feb-21 07:32 084 4 gusting 13 7.2
2018-Feb-21 07:27 114 3 gusting 13 7.2
2018-Feb-21 07:22 130 4 gusting 19 6.7
2018-Feb-21 07:17 137 3 gusting 19 6.7
2018-Feb-21 07:12 128 6 gusting 11 6.7
2018-Feb-21 07:07 115 4 gusting 11 6.7
2018-Feb-21 07:02 100 2 gusting 14 6.7
2018-Feb-21 06:57 049 5 gusting 14 6.1
2018-Feb-21 06:52 095 4 gusting 11 6.1
2018-Feb-21 06:47 018 5 gusting 11 6.1
2018-Feb-21 06:42 026 5 gusting 16 6.1
2018-Feb-21 06:37 038 4 gusting 16 6.1
2018-Feb-21 06:32 113 4 gusting 16 6.1
2018-Feb-21 06:27 054 3 gusting 16 6.1
2018-Feb-21 06:22 040 5 gusting 13 6.1
2018-Feb-21 06:17 028 6 gusting 13 5.6
2018-Feb-21 06:12 014 6 gusting 13 5.6
2018-Feb-21 06:07 087 5 gusting 13 5.6
2018-Feb-21 06:02 095 1 gusting 8 5.6
2018-Feb-21 05:57 049 2 gusting 8 6.1
2018-Feb-21 05:52 096 5 gusting 11 6.1
2018-Feb-21 05:47 046 4 gusting 11 6.1
2018-Feb-21 05:42 079 1 gusting 7 6.1
2018-Feb-21 05:37 047 1 gusting 7 6.1
2018-Feb-21 05:32 086 4 gusting 7 5.6
2018-Feb-21 05:27 015 2 gusting 7 5.6
2018-Feb-21 05:22 077 1 gusting 6 5.6
2018-Feb-21 05:17 034 2 gusting 6 5.6
2018-Feb-21 05:12 046 3 gusting 5 5.6
2018-Feb-21 05:07 024 2 gusting 5 5.6
2018-Feb-21 05:02 032 1 gusting 6 5.6
2018-Feb-21 04:57 021 2 gusting 6 5.6
2018-Feb-21 04:52 017 3 gusting 8 5.6
2018-Feb-21 04:47 024 3 gusting 8 5.6
2018-Feb-21 04:42 098 2 gusting 9 5.6
2018-Feb-21 04:37 061 2 gusting 9 6.1
2018-Feb-21 04:32 069 0 gusting 9 6.1
2018-Feb-21 04:27 082 2 gusting 9 5.6
2018-Feb-21 04:22 108 6 gusting 7 5.6
2018-Feb-21 04:17 094 5 gusting 7 5.6
2018-Feb-21 04:12 114 2 gusting 8 5.6
2018-Feb-21 04:07 109 1 gusting 8 5.6
2018-Feb-21 04:02 078 3 gusting 12 5.6
2018-Feb-21 03:57 132 1 gusting 12 5.6
2018-Feb-21 03:52 111 1 gusting 9 6.1
2018-Feb-21 03:47 095 5 gusting 9 6.1
2018-Feb-21 03:42 105 3 gusting 11 6.1
2018-Feb-21 03:37 103 1 gusting 11 6.1
2018-Feb-21 03:32 099 2 gusting 7 6.1
2018-Feb-21 03:27 039 6 gusting 7 5.6
2018-Feb-21 03:22 088 0 gusting 6 5.6
2018-Feb-21 03:17 039 1 gusting 6 5.6
2018-Feb-21 03:12 044 1 gusting 8 6.1
2018-Feb-21 03:07 015 0 gusting 8 6.1
2018-Feb-21 03:02 015 1 gusting 7 6.1
2018-Feb-21 02:57 133 0 gusting 7 6.1
2018-Feb-21 02:52 013 0 gusting 8 6.1
2018-Feb-21 02:47 109 1 gusting 8 6.1
2018-Feb-21 02:42 098 1 gusting 9 6.1
2018-Feb-21 02:37 045 2 gusting 9 6.1
2018-Feb-21 02:32 076 1 gusting 7 6.1
2018-Feb-21 02:27 093 1 gusting 7 6.1
2018-Feb-21 02:22 076 6 gusting 6 6.1
2018-Feb-21 02:17 044 1 gusting 6 6.1
2018-Feb-21 02:12 101 5 gusting 6 6.1
2018-Feb-21 02:07 110 0 gusting 6 6.1
2018-Feb-21 02:02 109 2 gusting 6 6.1
2018-Feb-21 01:57 108 3 gusting 6 6.1
2018-Feb-21 01:52 070 2 gusting 12 6.1
2018-Feb-21 01:47 105 2 gusting 12 6.1
2018-Feb-21 01:42 060 6 gusting 7 6.1
2018-Feb-21 01:37 017 2 gusting 7 6.1
2018-Feb-21 01:32 017 2 gusting 5 6.1
2018-Feb-21 01:27 011 2 gusting 5 6.1
2018-Feb-21 01:22 021 5 gusting 6 6.1
2018-Feb-21 01:17 017 0 gusting 6 6.1
2018-Feb-21 01:12 011 6.1
2018-Feb-21 01:07 017 1 gusting 5 5.6
2018-Feb-21 01:02 015 2 gusting 5 5.6
2018-Feb-21 00:57 011 2 gusting 5 6.1
2018-Feb-21 00:52 014 2 gusting 10 6.1
2018-Feb-21 00:47 011 0 gusting 10 6.1
2018-Feb-21 00:42 011 0 gusting 6 6.1
2018-Feb-21 00:37 011 5.6
2018-Feb-21 00:32 355 5.6
2018-Feb-21 00:27 015 5.6
2018-Feb-21 00:22 013 1 gusting 2 5.6
2018-Feb-21 00:17 013 5.6
2018-Feb-21 00:12 013 5.6
2018-Feb-21 00:07 013 1 gusting 3 5.6
2018-Feb-21 00:02 013 5.6
2018-Feb-20 23:57 013 5.6
2018-Feb-20 23:52 013 1 gusting 5 5.6
2018-Feb-20 23:47 015 4 gusting 5 6.1
2018-Feb-20 23:42 013 3 gusting 6 6.1
2018-Feb-20 23:37 015 3 gusting 6 6.1
2018-Feb-20 23:32 009 1 gusting 6 6.1
2018-Feb-20 23:27 036 1 gusting 6 5.6
2018-Feb-20 23:22 020 3 gusting 6 5.6
2018-Feb-20 23:17 038 1 gusting 6 5.6
2018-Feb-20 23:12 024 3 gusting 3 5.6
2018-Feb-20 23:07 039 0 gusting 3 5.6
2018-Feb-20 23:02 049 4 gusting 4 6.1
2018-Feb-20 22:57 053 0 gusting 4 6.1
2018-Feb-20 22:52 053 6.1
2018-Feb-20 22:47 051 6.1
2018-Feb-20 22:42 052 0 gusting 5 5.6
2018-Feb-20 22:37 049 1 gusting 5 5.6
2018-Feb-20 22:32 049 5.6
2018-Feb-20 22:27 051 1 gusting 6 5.6
2018-Feb-20 22:22 053 1 gusting 2 5.6
2018-Feb-20 22:17 061 3 gusting 2 5.6
2018-Feb-20 22:12 063 1 gusting 2 5.6
2018-Feb-20 22:07 063 5.6
2018-Feb-20 22:02 063 5.6
2018-Feb-20 21:57 063 5.6
2018-Feb-20 21:52 063 5.6
2018-Feb-20 21:47 063 5.6
2018-Feb-20 21:42 063 5.6
2018-Feb-20 21:37 063 1 gusting 3 5.6
2018-Feb-20 21:32 063 1 gusting 0 5.6
2018-Feb-20 21:27 065 1 gusting 0 5.6
2018-Feb-20 21:22 065 5.6
2018-Feb-20 21:17 065 5.6
2018-Feb-20 21:12 065 5.6
2018-Feb-20 21:07 065 5.6
2018-Feb-20 21:02 065 5.6
2018-Feb-20 20:57 065 5.6
2018-Feb-20 20:52 065 5.6
2018-Feb-20 20:47 065 5.6
2018-Feb-20 20:42 065 5.6
2018-Feb-20 20:37 065 5.6
2018-Feb-20 20:32 065 5.6
2018-Feb-20 20:27 065 5.6
2018-Feb-20 20:22 065 5.6
2018-Feb-20 20:17 065 5.6
2018-Feb-20 20:12 065 5.6
2018-Feb-20 20:07 065 5.6
2018-Feb-20 20:02 065 5.6
2018-Feb-20 19:57 065 5.0
2018-Feb-20 19:52 065 0 gusting 3 5.0
2018-Feb-20 19:47 065 5.0
2018-Feb-20 19:42 065 5.0
2018-Feb-20 19:37 064 5.0
2018-Feb-20 19:32 063 3 gusting 4 5.6
2018-Feb-20 19:27 061 5.6
2018-Feb-20 19:22 061 5.6
2018-Feb-20 19:17 061 1 gusting 4 5.6
2018-Feb-20 19:12 062 3 gusting 3 5.6
2018-Feb-20 19:07 062 1 gusting 3 5.6
2018-Feb-20 19:02 062 5.0
2018-Feb-20 18:57 061 5.0
2018-Feb-20 18:52 061 5.0
2018-Feb-20 18:47 061 5.0
2018-Feb-20 18:42 061 5.0
2018-Feb-20 18:37 061 5.0
2018-Feb-20 18:32 061 5.0
2018-Feb-20 18:27 061 5.0
2018-Feb-20 18:22 061 5.0
2018-Feb-20 18:17 061 5.0
2018-Feb-20 18:12 085 0 gusting 2 5.0
2018-Feb-20 18:07 086 1 gusting 2 5.0
2018-Feb-20 18:02 103 0 gusting 3 5.0
2018-Feb-20 17:57 103 5.0
2018-Feb-20 17:52 103 1 gusting 6 5.0
2018-Feb-20 17:47 114 0 gusting 6 5.0
2018-Feb-20 17:42 114 1 gusting 3 5.0
2018-Feb-20 17:37 078 5.6
2018-Feb-20 17:32 077 1 gusting 3 5.6
2018-Feb-20 17:27 075 5.6
2018-Feb-20 17:22 074 1 gusting 6 5.6
2018-Feb-20 17:17 033 0 gusting 6 5.6
2018-Feb-20 17:12 040 2 gusting 10 5.6
2018-Feb-20 17:07 010 2 gusting 10 5.6
2018-Feb-20 17:02 040 1 gusting 8 5.6
2018-Feb-20 16:57 017 2 gusting 8 5.6
2018-Feb-20 16:52 031 1 gusting 9 6.1
2018-Feb-20 16:47 126 1 gusting 9 6.1
2018-Feb-20 16:42 020 2 gusting 10 6.1
2018-Feb-20 16:37 022 2 gusting 10 6.1
2018-Feb-20 16:32 015 2 gusting 7 6.7
2018-Feb-20 16:27 024 4 gusting 7 6.7
2018-Feb-20 16:22 015 4 gusting 9 6.7
2018-Feb-20 16:17 019 1 gusting 9 6.7
2018-Feb-20 16:12 105 1 gusting 16 6.7
2018-Feb-20 16:07 049 0 gusting 16 7.2
2018-Feb-20 16:02 089 1 gusting 12 7.2
2018-Feb-20 15:57 014 5 gusting 12 7.2
2018-Feb-20 15:52 035 0 gusting 8 7.2
2018-Feb-20 15:47 077 0 gusting 8 7.2
2018-Feb-20 15:42 355 6 gusting 9 7.2
2018-Feb-20 15:37 005 2 gusting 9 7.8
2018-Feb-20 15:32 011 0 gusting 8 7.8
2018-Feb-20 15:27 084 1 gusting 8 7.8
2018-Feb-20 15:22 144 2 gusting 9 7.8
2018-Feb-20 15:17 017 2 gusting 9 8.3
2018-Feb-20 15:12 013 5 gusting 13 7.8
2018-Feb-20 15:07 115 1 gusting 13 8.3
2018-Feb-20 15:02 040 5 gusting 10 8.3
2018-Feb-20 14:57 027 2 gusting 10 8.3
2018-Feb-20 14:52 018 4 gusting 11 8.3
2018-Feb-20 14:47 067 1 gusting 11 8.3
2018-Feb-20 14:42 105 3 gusting 9 8.9
2018-Feb-20 14:37 088 1 gusting 9 8.9
2018-Feb-20 14:32 005 1 gusting 10 8.3
2018-Feb-20 14:27 088 2 gusting 10 8.3
2018-Feb-20 14:17 016 6 gusting 12 8.3
2018-Feb-20 14:12 022 3 gusting 13 8.3
2018-Feb-20 14:07 115 2 gusting 13 8.9
2018-Feb-20 14:02 077 4 gusting 9 8.9
2018-Feb-20 13:57 100 6 gusting 9 8.9
2018-Feb-20 13:52 103 1 gusting 12 8.3
2018-Feb-20 13:47 098 6 gusting 12 8.3
2018-Feb-20 13:42 111 2 gusting 11 8.3
2018-Feb-20 13:37 113 0 gusting 11 8.3
2018-Feb-20 13:32 096 8 gusting 12 8.3
2018-Feb-20 13:27 100 1 gusting 12 7.8
2018-Feb-20 13:22 117 1 gusting 12 7.8
2018-Feb-20 13:17 098 2 gusting 12 7.8
2018-Feb-20 13:12 103 9 gusting 16 8.3
2018-Feb-20 13:07 099 2 gusting 16 8.3
2018-Feb-20 13:02 098 4 gusting 13 8.3
2018-Feb-20 12:57 106 2 gusting 13 8.9
2018-Feb-20 12:52 097 16 gusting 16 8.9
2018-Feb-20 12:47 062 1 gusting 16 8.3
2018-Feb-20 12:42 078 6 gusting 16 8.3
2018-Feb-20 12:37 119 6 gusting 16 8.3
2018-Feb-20 12:32 079 6 gusting 15 8.3
2018-Feb-20 12:27 105 9 gusting 15 8.9
2018-Feb-20 12:22 101 9 gusting 12 8.9
2018-Feb-20 12:17 108 12 gusting 12 8.9
2018-Feb-20 12:12 012 4 gusting 13 8.9
2018-Feb-20 12:07 119 2 gusting 13 8.9
2018-Feb-20 12:02 076 0 gusting 13 8.9
2018-Feb-20 11:57 092 4 gusting 13 8.9
2018-Feb-20 11:52 109 9 gusting 12 8.9
2018-Feb-20 11:47 113 6 gusting 12 8.9
2018-Feb-20 11:42 043 3 gusting 12 8.9
2018-Feb-20 11:37 026 3 gusting 12 8.9
2018-Feb-20 11:32 103 8 gusting 13 8.9
2018-Feb-20 11:27 091 7 gusting 13 8.9
2018-Feb-20 11:22 101 1 gusting 14 8.9
2018-Feb-20 11:17 115 6 gusting 14 8.9
2018-Feb-20 11:12 017 0 gusting 12 8.3
2018-Feb-20 11:07 102 8 gusting 12 8.9
2018-Feb-20 11:02 146 6 gusting 13 8.9
2018-Feb-20 10:57 043 2 gusting 13 8.9
2018-Feb-20 10:52 050 5 gusting 8 8.9
2018-Feb-20 10:47 080 8.9
2018-Feb-20 10:42 086 4 gusting 9 8.3
2018-Feb-20 10:37 107 0 gusting 9 8.3
2018-Feb-20 10:32 030 1 gusting 13 8.3
2018-Feb-20 10:27 105 7 gusting 13 8.3
2018-Feb-20 10:22 094 2 gusting 13 7.8
2018-Feb-20 10:17 024 3 gusting 13 7.8
2018-Feb-20 10:12 095 2 gusting 10 7.8
2018-Feb-20 10:07 090 7 gusting 10 8.3
2018-Feb-20 10:02 086 1 gusting 12 8.3
2018-Feb-20 09:57 009 4 gusting 12 8.3
2018-Feb-20 09:52 090 4 gusting 11 7.8
2018-Feb-20 09:47 079 5 gusting 11 8.3
2018-Feb-20 09:42 096 0 gusting 6 7.8
2018-Feb-20 09:37 098 1 gusting 6 7.8
2018-Feb-20 09:32 100 2 gusting 6 7.8
2018-Feb-20 09:27 112 0 gusting 6 7.8
2018-Feb-20 09:22 355 2 gusting 7 7.8
2018-Feb-20 09:17 009 7.8
2018-Feb-20 09:12 107 2 gusting 11 7.2
2018-Feb-20 09:07 107 7.2
2018-Feb-20 09:02 113 3 gusting 12 6.7
2018-Feb-20 08:57 113 4 gusting 12 6.7
2018-Feb-20 08:52 116 6 gusting 13 6.1
2018-Feb-20 08:47 104 10 gusting 13 6.1
2018-Feb-20 08:42 117 3 gusting 10 6.1
2018-Feb-20 08:37 100 6 gusting 10 6.1
2018-Feb-20 08:32 122 6 gusting 6 5.6
2018-Feb-20 08:27 103 6 gusting 6 5.6
2018-Feb-20 08:22 128 5 gusting 4 5.0
2018-Feb-20 08:17 144 4.4
2018-Feb-20 08:12 144 2 gusting 0 3.9
2018-Feb-20 08:07 144 0 gusting 0 3.9
2018-Feb-20 08:02 144 2 gusting 1 3.3
2018-Feb-20 07:57 146 2.8
2018-Feb-20 07:52 146 2.8
2018-Feb-20 07:47 146 2.2
2018-Feb-20 07:42 146 2.2
2018-Feb-20 07:37 146 1.7
2018-Feb-20 07:32 146 1.7
2018-Feb-20 07:27 146 1.7
2018-Feb-20 07:22 146 1.7
2018-Feb-20 07:17 146 1.1
2018-Feb-20 07:12 146 1.1
2018-Feb-20 07:07 146 1.1
2018-Feb-20 07:02 146 1.1
2018-Feb-20 06:57 146 1.1
2018-Feb-20 06:52 146 1.1
2018-Feb-20 06:47 146 1.1
2018-Feb-20 06:42 146 1.1
2018-Feb-20 06:37 146 0 gusting 3 1.1
2018-Feb-20 06:32 146 2 gusting 3 1.1
2018-Feb-20 06:27 146 2 gusting 3 1.1
2018-Feb-20 06:22 146 1 gusting 3 1.1
2018-Feb-20 06:17 146 1 gusting 3 1.1
2018-Feb-20 06:12 146 1 gusting 2 1.1
2018-Feb-20 06:07 146 2 gusting 2 0.6
2018-Feb-20 06:02 146 0.6
2018-Feb-20 05:57 146 0.6
2018-Feb-20 05:52 146 1.1
2018-Feb-20 05:47 146 1.1
2018-Feb-20 05:42 146 1 gusting 4 1.1
2018-Feb-20 05:37 146 1.1
2018-Feb-20 05:32 146 1.7
2018-Feb-20 05:27 146 0 gusting 4 1.7
2018-Feb-20 05:22 146 1 gusting 5 1.7
2018-Feb-20 05:17 146 3 gusting 5 1.7
2018-Feb-20 05:12 146 3 gusting 6 1.7
2018-Feb-20 05:07 146 1 gusting 6 1.7
2018-Feb-20 05:02 146 3 gusting 6 1.7
2018-Feb-20 04:57 146 3 gusting 6 1.7
2018-Feb-20 04:52 142 3 gusting 5 1.7
2018-Feb-20 04:47 140 4 gusting 5 1.7
2018-Feb-20 04:42 138 4 gusting 5 1.7
2018-Feb-20 04:37 136 2 gusting 5 1.7
2018-Feb-20 04:32 136 3 gusting 6 1.1
2018-Feb-20 04:27 136 2 gusting 6 1.1
2018-Feb-20 04:22 134 3 gusting 4 1.1
2018-Feb-20 04:17 132 4 gusting 4 1.1
2018-Feb-20 04:12 128 3 0.6
2018-Feb-20 04:07 119 2 0.6
2018-Feb-20 04:02 115 3 0.6
2018-Feb-20 03:57 115 0.6
2018-Feb-20 03:52 115 0.6
2018-Feb-20 03:47 115 0.6
2018-Feb-20 03:42 115 0.6
2018-Feb-20 03:37 115 0.6
2018-Feb-20 03:32 115 0.6
2018-Feb-20 03:27 115 0.6
2018-Feb-20 03:22 115 1 0.6
2018-Feb-20 03:17 115 1 0.6
2018-Feb-20 03:12 115 0.6
2018-Feb-20 03:07 115 0.6
2018-Feb-20 03:02 115 -0.0
2018-Feb-20 02:57 115 -0.0
2018-Feb-20 02:52 115 -0.0
2018-Feb-20 02:47 115 -0.0
2018-Feb-20 02:42 115 -0.0
2018-Feb-20 02:37 115 1 -0.0
2018-Feb-20 02:32 115 -0.0
2018-Feb-20 02:27 115 -0.0
2018-Feb-20 02:22 115 -0.0
2018-Feb-20 02:17 115 0.6
2018-Feb-20 02:12 115 0.6
2018-Feb-20 02:07 115 0.6
2018-Feb-20 02:02 115 0 gusting 3 0.6
2018-Feb-20 01:57 115 0.6
2018-Feb-20 01:52 115 0.6
2018-Feb-20 01:47 115 0.6
2018-Feb-20 01:42 115 3 gusting 1 0.6
2018-Feb-20 01:37 115 2 gusting 1 0.6
2018-Feb-20 01:32 115 1 gusting 1 -0.0
2018-Feb-20 01:27 115 -0.0
2018-Feb-20 01:22 115 -0.0
2018-Feb-20 01:17 115 0 -0.6
2018-Feb-20 01:12 115 -0.6
2018-Feb-20 01:07 115 -0.6
2018-Feb-20 01:02 115 -0.0
2018-Feb-20 00:57 115 -0.0
2018-Feb-20 00:52 115 -0.0
2018-Feb-20 00:47 115 -0.0
2018-Feb-20 00:42 115 0.6
2018-Feb-20 00:37 115 0.6
2018-Feb-20 00:32 115 0.6
2018-Feb-20 00:27 115 0.6
2018-Feb-20 00:22 115 0.6
2018-Feb-20 00:17 115 0.6
2018-Feb-20 00:12 115 0.6
2018-Feb-20 00:07 115 1.1
2018-Feb-20 00:02 115 1.1
2018-Feb-19 23:57 115 1.1
2018-Feb-19 23:52 115 1.1
2018-Feb-19 23:47 115 1.1
2018-Feb-19 23:42 115 1.1
2018-Feb-19 23:37 115 1.1
2018-Feb-19 23:32 115 1.1
2018-Feb-19 23:27 115 1.1
2018-Feb-19 23:22 115 1.7
2018-Feb-19 23:17 115 1.7
2018-Feb-19 23:12 115 1.7
2018-Feb-19 23:07 115 1.7
2018-Feb-19 23:02 115 1.7